Theta_e
312 313 312 311 310 311 308 308 308 309 311 309 307 306 306 308 307 312 314 315 316 317 317 328 326 330 339 346 352 355 367 369 360 360 360 358 360 355 355 360 356 355 347 343 343
313 313 313 311 310 310 310 308 308 309 309 310 306 305 307 309 317 317 317 317 316 316 322 330 330 335 342 345 351 362 367 364 357 357 358 359 354 357 360 361 357 349 344 342 342
310 309 309 309 311 313 313 312 310 309 308 307 306 305 308 312 322 321 322 318 317 314 328 333 335 339 341 346 351 360 368 356 356 356 357 359 356 352 360 364 356 349 345 343 343
311 311 310 310 311 311 313 314 314 311 309 307 306 306 309 320 331 328 320 318 313 317 331 335 336 337 342 345 346 361 350 352 356 356 356 359 355 358 358 360 355 346 343 344 343
310 309 312 313 314 314 313 314 313 313 310 307 306 307 318 323 319 328 321 317 315 318 332 337 335 334 339 337 340 353 350 354 349 354 356 357 357 360 352 352 354 346 345 344 343
314 313 313 313 313 314 314 313 312 311 310 308 306 309 320 323 323 327 321 317 315 323 336 334 331 333 335 332 335 346 357 355 346 352 357 358 357 358 355 356 352 347 346 344 343
314 314 314 313 312 313 314 312 311 309 309 307 306 317 324 322 324 326 322 320 318 326 335 331 328 332 331 331 334 339 346 352 347 350 357 355 359 360 358 355 353 348 346 344 342
313 313 313 314 313 313 313 311 311 313 309 307 306 319 324 320 319 326 325 321 320 325 331 329 328 327 329 331 334 337 346 357 348 346 354 356 366 360 356 355 352 348 346 344 343
314 314 313 313 313 312 311 311 313 309 306 306 317 322 323 321 321 325 326 323 325 328 329 326 326 325 327 331 336 337 348 351 350 345 357 357 366 361 357 355 352 349 346 344 343
314 314 314 313 312 312 309 314 311 313 312 317 323 324 321 324 321 325 326 325 325 328 327 326 325 325 327 332 337 339 342 349 352 347 355 358 364 361 358 355 354 350 347 346 344
313 313 312 312 311 309 316 319 324 328 319 321 323 324 324 324 323 327 324 323 324 326 327 326 324 325 326 330 336 339 342 351 350 349 357 351 348 360 359 355 354 352 348 347 346
313 313 311 310 309 308 314 325 320 321 323 320 322 321 322 322 325 326 324 324 324 326 326 327 325 325 325 327 329 336 337 350 349 348 357 352 356 359 359 358 355 352 350 351 350
314 312 311 311 309 311 319 321 318 318 320 324 320 320 324 325 325 324 324 324 323 324 325 327 326 325 325 326 328 330 335 350 352 350 352 358 362 346 359 356 357 355 353 351 351
314 312 310 312 312 319 321 318 318 318 322 324 319 320 324 325 326 324 324 325 327 326 325 324 326 326 326 326 328 330 334 338 350 349 345 346 360 366 363 358 351 358 357 355 352
314 313 310 311 316 321 320 317 318 318 327 320 320 320 322 322 324 325 324 325 327 325 324 324 325 326 326 326 329 332 334 342 344 345 339 340 352 353 354 363 346 353 358 354 350
316 313 313 313 314 318 317 318 318 320 325 318 319 320 323 322 322 323 325 324 326 327 326 325 326 326 326 327 333 333 333 333 340 341 340 341 341 353 358 356 353 350 358 354 352
316 315 313 316 321 320 318 319 322 323 324 320 319 321 322 322 321 324 324 324 326 329 329 328 327 325 327 328 331 332 335 335 343 340 338 338 342 356 353 350 353 357 356 351 347
317 317 316 318 320 320 320 325 329 329 325 321 320 319 321 321 321 324 324 325 325 327 329 329 331 329 326 328 332 332 335 335 341 338 336 335 350 349 346 345 343 350 351 356 346
316 318 319 323 322 321 324 332 330 326 323 321 320 319 320 320 321 321 323 325 323 326 329 331 329 329 327 329 332 334 336 334 332 332 333 345 348 345 345 346 348 358 359 357 356
317 322 325 320 320 322 326 326 325 320 319 319 321 321 319 320 319 321 322 324 324 325 326 330 330 328 327 329 332 335 333 335 337 338 337 347 350 351 348 357 358 358 357 358 355
319 325 323 320 320 324 328 325 321 319 320 321 323 323 321 321 321 322 325 325 324 324 325 326 328 327 326 328 331 332 333 333 334 335 337 350 348 346 350 357 357 353 350 350 351
325 325 319 318 324 324 322 320 314 320 319 319 319 323 323 322 322 324 326 324 321 323 326 326 326 328 326 325 325 326 332 332 336 339 336 349 350 344 349 352 349 348 346 344 344
325 320 318 320 326 323 319 318 319 320 319 319 318 318 319 323 324 325 324 320 321 321 327 327 326 329 326 325 325 326 327 328 331 333 340 341 347 346 350 348 347 346 344 343 341
325 321 321 320 320 320 320 319 318 317 319 320 319 319 318 319 320 323 321 320 320 320 323 325 325 328 329 330 326 325 327 327 329 332 333 340 341 345 345 345 344 343 341 340 339
320 317 320 320 319 319 319 317 316 318 318 320 320 321 320 322 320 322 321 320 320 319 322 321 324 325 326 325 324 324 324 326 327 329 342 342 347 345 344 342 340 338 337 336 335
321 322 319 319 320 320 316 319 318 317 319 318 321 321 321 323 325 325 321 320 321 322 322 322 325 326 325 323 322 324 324 325 325 326 335 338 344 339 337 337 337 336 335 334 333
320 320 322 317 320 319 318 318 318 320 317 318 318 319 322 322 321 323 321 322 324 324 323 324 323 327 324 323 321 322 323 323 322 324 337 342 339 334 334 334 333 331 330 329 329
Wind_Speed
15 15 15 15 14 14 14 14 14 14 14 14 13 12 13 13 12 9 13 13 14 19 10 13 18 21 20 17 17 7 3 2 7 10 7 6 4 2 9 5 5 8 25 27 32
15 15 16 16 15 14 14 14 14 14 14 14 14 11 11 12 13 21 19 17 13 14 16 20 19 20 13 18 15 5 1 5 11 9 14 11 7 6 4 4 9 17 27 34 31
16 15 15 15 15 15 16 15 14 14 14 14 14 11 9 8 12 7 17 29 19 15 21 20 19 15 17 17 16 7 4 6 10 17 20 18 15 10 5 8 13 26 28 27 29
16 17 16 15 15 15 16 16 16 15 14 13 12 9 8 7 3 6 8 24 15 16 21 23 16 17 17 18 13 6 12 15 17 12 21 20 19 14 10 9 9 25 27 24 23
17 16 18 17 18 17 16 16 17 17 15 12 10 7 6 8 13 4 8 15 13 18 22 19 19 17 17 16 10 11 10 15 4 13 21 20 19 15 13 14 19 25 25 23 20
18 18 18 19 18 18 17 17 18 17 15 11 7 4 6 14 4 6 10 13 15 21 20 21 14 15 16 16 11 8 25 21 8 14 18 13 9 13 14 17 20 24 24 21 21
18 18 18 18 18 19 19 18 17 16 13 9 6 4 11 16 1 5 11 15 18 22 18 19 17 14 9 15 12 8 14 14 9 16 19 19 14 9 15 15 20 23 22 20 20
18 17 17 19 19 20 20 18 11 11 10 7 7 7 8 10 9 8 11 15 18 21 22 14 17 12 16 13 9 14 13 17 13 16 17 7 9 15 14 13 21 24 21 19 19
20 20 19 19 20 20 17 5 4 3 5 9 6 10 10 9 13 13 14 17 18 18 18 12 4 12 15 15 12 13 13 15 12 15 22 13 7 12 10 15 20 21 20 19 18
21 21 20 18 16 16 8 3 4 8 5 6 15 9 10 12 18 16 14 14 17 14 14 8 7 13 16 13 14 17 19 12 11 12 20 16 16 17 13 16 17 19 19 17 19
19 18 17 17 13 3 1 2 5 6 14 11 6 13 12 14 19 16 17 16 16 13 12 14 12 16 20 19 20 18 18 17 13 16 13 13 11 11 14 14 16 16 16 15 15
19 16 12 9 8 5 6 7 9 9 6 22 18 18 10 21 17 16 19 13 13 15 16 12 17 17 19 19 21 23 19 7 4 17 18 21 15 16 20 18 17 16 11 13 8
17 14 9 4 1 6 12 16 7 9 7 13 17 12 6 19 15 18 18 18 18 17 18 19 14 20 17 18 20 23 18 16 13 22 17 23 16 17 16 19 15 15 15 17 14
15 11 7 6 7 13 18 3 8 4 6 16 17 11 13 9 14 20 22 16 9 16 18 19 18 19 18 18 15 17 19 14 23 17 12 20 12 32 28 16 5 4 17 17 20
13 10 7 8 14 13 8 9 9 5 5 9 16 11 14 17 14 21 20 18 14 15 14 18 17 12 18 16 14 15 17 13 14 18 14 16 10 12 19 23 22 21 20 21 21
11 9 9 9 12 15 11 11 9 6 2 7 7 11 14 16 19 19 17 18 14 13 17 15 15 13 16 14 12 21 14 15 8 12 12 10 15 13 10 4 26 33 24 19 14
13 13 13 13 14 13 11 9 8 5 3 6 14 15 18 18 13 16 17 19 13 10 15 14 18 13 10 15 18 18 15 9 9 10 10 15 9 7 17 6 19 3 22 22 8
11 15 17 21 12 11 10 9 8 6 12 8 8 14 17 18 15 15 17 16 17 16 12 13 13 11 12 21 16 16 16 9 14 11 11 18 12 9 15 6 13 22 15 28 27
15 15 12 18 13 4 6 6 5 10 6 12 12 14 16 17 14 14 17 16 17 14 8 12 17 18 18 16 15 19 17 18 16 19 15 9 12 9 10 12 10 23 19 19 3
9 16 21 5 4 3 8 4 13 9 8 8 14 13 16 14 11 14 18 4 9 3 7 9 15 17 9 9 8 14 14 17 14 13 14 12 18 15 16 17 18 20 19 17 13
6 2 6 10 8 8 1 9 7 2 9 9 12 11 8 4 12 13 7 3 3 7 4 12 8 9 11 13 13 11 13 13 17 14 9 9 1 16 17 16 16 18 15 13 14
16 7 6 7 7 8 5 9 3 6 4 3 6 6 10 7 3 19 3 8 5 8 9 13 8 11 13 11 16 18 17 16 11 18 6 7 2 13 13 17 15 14 15 14 13
5 3 5 10 5 4 4 7 9 5 4 3 1 1 13 8 5 10 6 1 3 6 3 9 7 5 13 5 5 8 16 16 18 17 6 10 6 5 10 16 16 14 12 13 13
6 2 4 3 7 8 3 5 7 4 4 4 3 7 5 4 5 4 4 1 3 8 5 5 11 8 6 11 10 18 17 13 15 11 15 15 18 19 19 16 17 15 13 14 14
4 5 5 8 8 9 10 5 2 5 3 4 5 6 2 7 3 4 3 2 1 2 2 4 9 8 3 10 15 14 19 11 11 14 11 13 20 14 16 16 14 15 12 12 13
6 5 3 4 2 4 5 9 9 5 10 3 2 4 3 11 5 4 7 7 3 3 1 3 6 4 7 4 10 14 17 12 11 12 16 11 17 14 15 18 11 13 11 11 12
7 4 7 4 3 7 7 7 5 2 4 7 6 2 5 10 8 7 9 9 7 4 1 3 6 3 10 5 5 8 7 4 4 6 16 16 12 16 16 15 12 11 10 10 10
Wind_Direction
335 332 329 327 325 324 322 322 320 320 318 316 312 312 316 308 300 268 247 225 229 234 250 208 207 217 210 236 205 149 296 208 147 172 128 133 120 51 298 302 285 161 147 141 148
332 329 328 326 325 323 320 316 316 316 313 310 308 309 315 310 286 262 239 238 249 211 207 205 200 210 217 232 230 121 41 251 131 157 137 131 111 113 303 329 157 131 133 143 150
330 328 327 327 326 324 320 316 312 310 307 304 304 305 312 320 275 258 226 224 228 221 207 214 212 208 229 230 218 125 210 146 115 122 140 146 141 171 233 270 139 142 143 151 155
331 328 326 324 322 319 318 315 313 307 303 299 299 305 300 279 276 74 154 203 215 202 215 232 216 214 235 236 228 76 316 276 130 129 150 154 157 172 175 321 284 140 148 149 158
326 323 322 321 319 315 314 311 308 304 297 292 293 302 312 224 253 160 171 202 205 193 213 230 217 216 229 246 226 106 330 285 136 130 145 168 184 140 129 207 239 148 150 152 156
321 320 318 316 314 313 310 306 304 298 291 283 275 276 258 254 99 145 169 175 192 192 213 228 220 221 239 259 238 170 184 245 171 120 133 158 154 139 150 210 157 148 152 159 157
320 318 317 311 314 309 306 302 301 296 284 263 233 244 262 244 318 149 177 191 195 196 216 219 228 227 250 267 253 233 209 238 214 141 156 147 142 124 138 132 143 152 158 161 162
322 319 316 312 311 308 303 307 299 287 268 228 198 220 260 254 249 181 177 189 195 204 231 212 236 271 246 274 228 229 232 219 184 176 140 113 145 135 134 142 151 158 162 160 161
324 318 315 313 309 304 304 305 319 21 190 186 194 215 249 148 208 197 186 181 188 211 224 216 251 239 241 252 227 208 223 211 212 162 142 142 97 316 135 152 162 163 164 161 158
324 319 315 311 307 307 305 221 99 100 136 201 261 213 245 205 190 188 190 185 187 196 207 192 212 231 235 219 220 208 229 202 180 174 124 123 150 200 184 159 166 168 166 164 164
326 323 318 314 314 323 108 200 204 183 212 220 192 224 144 184 169 174 173 179 195 195 200 207 219 212 217 218 239 218 224 167 157 262 127 138 133 207 172 179 172 171 170 159 172
330 326 329 329 325 243 236 255 26 336 272 228 265 221 263 163 167 183 176 180 192 196 208 189 225 227 225 228 235 255 236 169 36 309 105 145 153 228 169 178 178 177 168 151 186
341 333 330 315 298 225 232 286 315 308 272 213 215 220 247 161 181 181 190 201 189 208 207 232 217 233 220 233 223 240 257 158 146 268 159 152 135 220 180 157 176 171 192 171 185
340 336 320 301 287 252 237 277 292 319 275 166 194 209 200 209 204 178 200 201 183 213 223 230 244 199 236 235 225 230 236 232 165 217 201 188 166 181 173 136 126 250 181 187 186
327 322 288 259 307 294 344 300 331 267 268 139 181 176 190 205 185 175 190 216 237 219 221 215 233 217 225 219 209 240 230 144 215 202 229 187 140 179 161 153 153 216 213 177 186
304 314 287 269 255 263 304 300 258 238 328 126 119 173 183 204 218 162 177 233 233 243 232 243 208 233 231 225 214 239 280 235 215 212 231 196 230 154 158 203 183 198 196 173 173
301 273 272 273 280 319 312 280 241 277 311 125 168 188 195 200 172 160 190 206 223 219 219 214 243 217 223 220 232 230 251 195 212 211 228 208 197 112 130 134 236 117 172 153 165
296 277 267 260 281 283 275 272 310 266 315 287 218 183 202 196 192 167 188 198 222 221 202 200 211 213 200 227 209 213 235 202 210 218 228 256 130 151 139 132 152 186 144 159 161
295 280 249 249 230 296 293 32 210 273 287 315 307 185 200 200 158 186 199 214 209 233 289 214 236 190 198 230 250 195 235 228 207 220 226 112 91 114 142 128 120 69 71 48 198
305 283 252 321 266 192 57 162 256 334 299 270 282 333 211 176 202 192 197 161 196 108 3 250 303 160 172 273 272 267 232 238 250 275 244 145 157 150 162 105 88 69 58 71 44
254 239 293 297 260 88 165 237 99 45 318 345 18 345 294 314 222 202 111 82 28 342 280 290 244 202 187 211 226 217 248 254 257 247 229 152 358 147 142 113 103 92 80 58 63
284 234 1 293 332 302 84 24 286 359 311 91 27 39 1 331 89 45 32 14 346 277 289 268 305 164 200 201 224 248 228 239 238 250 303 53 93 335 104 103 94 84 83 71 52
277 50 33 274 134 264 104 92 19 61 7 313 154 217 321 45 352 69 249 27 334 245 31 335 257 199 154 179 227 243 245 252 244 253 163 158 174 156 120 99 96 86 78 65 58
280 331 86 46 10 7 37 71 104 20 58 37 33 283 251 297 297 157 141 93 53 33 315 286 293 59 321 316 279 213 237 243 264 276 268 138 158 144 116 106 105 99 89 78 60
302 47 341 13 19 33 14 1 55 73 114 313 204 263 75 307 266 314 161 120 236 70 246 265 265 318 152 289 327 211 221 228 248 273 83 101 144 136 123 119 112 107 95 83 70
343 349 107 29 276 196 113 31 53 55 349 95 280 294 180 230 16 265 279 232 174 142 332 294 299 321 273 259 312 323 198 211 237 270 136 114 93 104 109 109 121 115 109 91 78
359 305 276 154 314 45 43 35 48 57 57 34 1 276 243 57 342 191 346 315 149 295 262 296 271 218 252 212 307 276 284 162 269 287 129 139 164 129 126 113 102 101 97 92 79